EW4305 Weather Reports


time (UTC)temp
F
wind
direction
speed
knots
gust
knots
rain 1hr
in
rain 24hr
in
rain mn
in
humidity
%
barometer
mb
20260906213002 89 108 0.9 4.3 0.00 0.00 0.00 33 998.8
20260906210502 88 110 0.0 2.6 0.00 0.00 0.00 33 999.5
20260906210003 88 114 0.9 2.6 0.00 0.00 0.00 33 999.3
20260906205502 88 119 0.9 6.1 0.00 0.00 0.00 34 999.3
20260906205003 88 108 0.9 7.8 0.00 0.00 0.00 35 999.4
20260906204003 88 140 4.3 8.7 0.00 0.00 0.00 37 999.6
20260906203003 88 90 0.0 2.6 0.00 0.00 0.00 37 999.6
20260906202503 87 90 0.0 1.7 0.00 0.00 0.00 36 999.7
20260906201503 87 92 0.9 5.2 0.00 0.00 0.00 38 1000.2
20260906195503 87 94 0.9 2.6 0.00 0.00 0.00 38 1000.4
20260906195003 87 88 0.9 2.6 0.00 0.00 0.00 38 1000.4
20260906194502 86 92 0.0 4.3 0.00 0.00 0.00 37 1000.3
20260906194002 86 88 0.9 5.2 0.00 0.00 0.00 37 1000.3
20260906193503 86 82 0.0 2.6 0.00 0.00 0.00 38 1000.3
20260906193002 86 80 0.0 2.6 0.00 0.00 0.00 37 1000.5
20260906192503 86 77 0.0 2.6 0.00 0.00 0.00 39 1000.5
20260906191002 85 90 0.0 5.2 0.00 0.00 0.00 37 1001.1
20260906190503 85 84 0.0 1.7 0.00 0.00 0.00 38 1001.3
20260906190002 84 81 0.9 4.3 0.00 0.00 0.00 40 1001.4
20260906185503 84 40 0.9 4.3 0.00 0.00 0.00 41 1001.6
20260906184002 84 63 0.9 4.3 0.00 0.00 0.00 44 1001.7
20260906183003 83 82 0.0 2.6 0.00 0.00 0.00 45 1001.9
20260906182502 82 82 0.0 1.7 0.00 0.00 0.00 44 1002.3
20260906182003 81 77 0.9 4.3 0.00 0.00 0.00 44 1002.4
20260906181503 80 69 0.0 1.7 0.00 0.00 0.00 47 1002.8
20260906180003 80 74 0.9 4.3 0.00 0.00 0.00 49 1002.6
20260906175503 80 82 0.0 4.3 0.00 0.00 0.00 50 1002.9
20260906175003 80 96 0.0 2.6 0.00 0.00 0.00 50 1003.0
20260906174003 80 101 0.0 0.0 0.00 0.00 0.00 48 1003.2
20260906173503 80 101 0.0 0.0 0.00 0.00 0.00 52 1003.3
20260906173003 79 101 0.0 2.6 0.00 0.00 0.00 51 1003.7
20260906172503 79 101 0.0 2.6 0.00 0.00 0.00 52 1003.7
20260906171503 78 94 0.0 1.7 0.00 0.00 0.00 52 1004.1
20260906171003 78 95 0.0 0.0 0.00 0.00 0.00 53 1004.2
20260906170003 77 95 0.0 0.0 0.00 0.00 0.00 54 1004.5
20260906165502 77 95 0.0 0.0 0.00 0.00 0.00 54 1004.4
20260906164503 76 95 0.0 2.6 0.00 0.00 0.00 55 1004.5
20260906164003 76 102 0.9 2.6 0.00 0.00 0.00 57 1004.7
20260906163003 75 98 0.0 2.6 0.00 0.00 0.00 59 1004.7
20260906162003 74 92 0.0 2.6 0.00 0.00 0.00 59 1005.1
20260906161503 74 96 1.7 4.3 0.00 0.00 0.00 60 1005.1
20260906161002 74 47 0.0 2.6 0.00 0.00 0.00 58 1005.1
20260906160502 73 40 0.9 2.6 0.00 0.00 0.00 59 1005.3
20260906155502 72 30 0.9 4.3 0.00 0.00 0.00 62 1005.0
20260906155003 73 52 0.0 1.7 0.00 0.00 0.00 61 1005.0
20260906154503 73 53 0.9 2.6 0.00 0.00 0.00 62 1005.0
20260906153503 72 52 0.0 1.7 0.00 0.00 0.00 62 1005.0
20260906153003 72 53 0.0 2.6 0.00 0.00 0.00 62 1005.0
20260906152003 71 52 0.0 2.6 0.00 0.00 0.00 63 1005.4
20260906151503 70 51 0.0 2.6 0.00 0.00 0.00 64 1005.5
20260906145003 70 54 0.0 0.9 0.00 0.00 0.00 62 1005.3
20260906144003 70 54 0.0 0.0 0.00 0.00 0.00 62 1005.3
20260906141503 68 54 0.0 0.0 0.00 0.00 0.00 64 1005.5
20260906141003 68 54 0.0 0.0 0.00 0.00 0.00 66 1006.0
20260906134503 65 54 0.0 0.0 0.00 0.00 0.00 74 1005.6
20260906134003 64 54 0.0 0.0 0.00 0.00 0.00 76 1005.4
20260906133503 64 54 0.0 0.0 0.00 0.00 0.00 76 1005.3
20260906131003 64 54 0.0 0.0 0.00 0.00 0.00 76 1005.4
20260906124503 63 54 0.0 0.0 0.00 0.00 0.00 83 1004.6
20260906123503 63 54 0.0 0.0 0.00 0.00 0.00 83 1004.6
20260906123003 63 54 0.0 0.0 0.00 0.00 0.00 84 1004.6
20260906122503 63 54 0.0 0.0 0.00 0.00 0.00 84 1004.7
20260906122003 63 54 0.0 0.0 0.00 0.00 0.00 83 1004.6
20260906121004 63 54 0.0 0.0 0.00 0.00 0.00 83 1004.6
20260906113003 64 54 0.0 0.0 0.00 0.00 0.00 79 1003.6
20260906111503 65 54 0.0 0.0 0.00 0.00 0.00 79 1003.5
20260906105503 65 54 0.0 0.0 0.00 0.00 0.00 78 1002.9
20260906104003 66 54 0.9 4.3 0.00 0.00 0.00 77 1002.8
20260906103504 66 53 0.9 4.3 0.00 0.00 0.00 77 1002.7
20260906103003 66 51 0.9 2.6 0.00 0.00 0.00 77 1002.7
20260906102503 66 51 0.0 0.0 0.00 0.00 0.00 77 1002.8
20260906100003 67 53 0.0 0.0 0.00 0.00 0.00 76 1002.5
20260906095003 67 53 0.0 0.0 0.00 0.00 0.00 74 1002.4
20260906092004 67 53 0.0 0.0 0.00 0.00 0.00 71 1001.8
20260906091503 67 53 0.0 0.0 0.00 0.00 0.00 70 1001.7
20260906091003 67 53 0.0 0.0 0.00 0.00 0.00 70 1001.5
20260906085503 68 53 0.0 0.0 0.00 0.00 0.00 68 1001.4
20260906084503 68 53 0.0 0.0 0.00 0.00 0.00 71 1001.4
20260906083503 68 53 0.0 0.0 0.00 0.00 0.00 70 1001.3
20260906083003 68 53 0.0 0.0 0.00 0.00 0.00 70 1001.4
20260906080004 68 53 0.0 0.0 0.00 0.00 0.00 67 1001.6
20260906072504 69 54 0.0 0.0 0.00 0.00 0.00 66 1001.6
20260906071504 69 54 0.0 0.0 0.00 0.00 0.00 66 1001.4
20260906065450 69 56 0.0 1.7 0.00 0.00 0.00 68 1001.7
20260906064951 69 56 0.0 0.0 0.00 0.00 0.00 67 1001.6
20260906064450 69 56 0.0 0.0 0.00 0.00 0.00 66 1001.9
20260906063950 69 56 0.0 0.0 0.00 0.00 0.00 66 1001.6
20260906062450 69 56 0.0 0.0 0.00 0.00 0.00 64 1001.9
20260906061950 69 56 0.0 0.0 0.00 0.00 0.00 62 1002.0
20260906061450 69 56 0.0 0.0 0.00 0.00 0.00 60 1002.0
20260906060950 69 56 0.0 0.0 0.00 0.00 0.00 61 1002.0
20260906060451 69 56 0.0 0.0 0.00 0.00 0.00 59 1001.7
20260906055950 70 56 0.0 0.0 0.00 0.00 0.00 58 1001.8
20260906055450 70 56 0.0 0.0 0.00 0.00 0.00 57 1001.4
20260906053950 70 56 0.0 0.0 0.00 0.00 0.00 55 1001.6
20260906053451 70 56 0.0 0.0 0.00 0.00 0.00 55 1001.9
20260906052450 71 56 0.0 0.0 0.00 0.00 0.00 53 1001.8
20260906051950 71 56 0.0 0.0 0.00 0.00 0.00 52 1001.8
20260906051450 71 56 0.0 0.0 0.00 0.00 0.00 50 1001.8
20260906050951 71 56 0.0 4.3 0.00 0.00 0.00 50 1001.2
20260906050450 72 95 0.9 7.0 0.00 0.00 0.00 48 1001.2
20260906045450 71 99 0.0 0.0 0.00 0.00 0.00 47 1001.8
20260906044951 71 101 0.0 0.0 0.00 0.00 0.00 48 1001.7
20260906043951 71 101 0.0 0.0 0.00 0.00 0.00 48 1001.4
20260906043451 72 101 0.0 0.0 0.00 0.00 0.00 48 1001.0
20260906042951 72 101 0.0 0.0 0.00 0.00 0.00 47 1000.9
20260906042451 73 101 0.0 0.0 0.00 0.00 0.00 46 1000.9
20260906041951 73 101 0.0 0.0 0.00 0.00 0.00 46 1000.8
20260906041450 73 101 0.0 0.0 0.00 0.00 0.00 43 1000.5
20260906035951 74 101 0.9 2.6 0.00 0.00 0.00 40 1001.4
20260906033951 75 333 0.0 0.0 0.00 0.00 0.00 41 1001.3
20260906033450 75 333 0.0 0.0 0.00 0.00 0.00 40 1001.0
20260906031451 76 333 0.0 0.0 0.00 0.00 0.00 38 1000.6
20260906030451 76 333 0.0 1.7 0.00 0.00 0.00 39 1000.5
20260906024450 76 355 0.0 0.0 0.00 0.00 0.00 39 1001.4
20260906023450 77 355 0.0 0.0 0.00 0.00 0.00 39 1001.5
20260906022951 77 355 0.0 0.9 0.00 0.00 0.00 38 1001.5
20260906021951 78 342 0.0 0.0 0.00 0.00 0.00 39 1001.0
20260906021451 79 342 0.0 0.0 0.00 0.00 0.00 39 1001.0
20260906020951 79 342 0.0 0.0 0.00 0.00 0.00 37 1000.8
20260906020451 80 342 0.0 0.0 0.00 0.00 0.00 36 1000.4
20260906015951 80 342 0.0 0.0 0.00 0.00 0.00 34 1001.2
20260906015451 81 342 0.0 0.0 0.00 0.00 0.00 33 1001.1
20260906014951 81 342 0.0 0.0 0.00 0.00 0.00 33 1001.1
20260906013950 82 342 0.0 0.0 0.00 0.00 0.00 32 1000.7
20260906013451 82 342 0.0 0.9 0.00 0.00 0.00 31 1000.7
20260906012950 83 342 0.9 2.6 0.00 0.00 0.00 31 1000.6
20260906012451 83 337 0.0 2.6 0.00 0.00 0.00 31 1000.5
20260906011951 83 345 0.0 7.8 0.00 0.00 0.00 30 1000.4
20260906010951 84 358 1.7 5.2 0.00 0.00 0.00 28 1000.0
20260906010451 84 344 0.0 5.2 0.00 0.00 0.00 27 1000.2
20260906005451 85 325 0.9 4.3 0.00 0.00 0.00 27 1001.9
20260906004950 86 335 0.0 1.7 0.00 0.00 0.00 26 1001.8
20260906003951 87 297 1.7 7.8 0.00 0.00 0.00 25 1001.4
20260906002951 88 282 0.9 5.2 0.00 0.00 0.00 23 1001.2
20260906002451 89 2 0.9 6.1 0.00 0.00 0.00 22 1000.8
20260906001951 89 105 0.0 0.0 0.00 0.00 0.00 21 1000.7
20260906000951 90 105 0.0 0.0 0.00 0.00 0.00 22 1000.8
20260905235951 90 105 0.0 0.0 0.00 0.00 0.00 23 1000.8
20260905235450 90 105 0.0 0.0 0.00 0.00 0.00 23 1000.5
20260905234451 91 105 0.0 0.0 0.00 0.00 0.00 21 1000.4
20260905233951 91 105 0.0 0.0 0.00 0.00 0.00 20 1000.4
20260905232951 91 105 0.0 0.0 0.00 0.00 0.00 20 1000.3
20260905231451 92 105 0.0 0.0 0.00 0.00 0.00 19 1000.2
20260905225951 92 105 0.0 0.0 0.00 0.00 0.00 17 999.8
20260905224952 93 105 0.0 0.0 0.00 0.00 0.00 18 999.7
20260905223951 93 105 3.5 7.8 0.00 0.00 0.00 17 999.7
20260905222951 94 98 0.0 1.7 0.00 0.00 0.00 18 999.3
20260905220951 94 70 0.9 2.6 0.00 0.00 0.00 20 999.3
20260905215951 94 91 1.7 6.1 0.00 0.00 0.00 18 999.5
20260905213951 94 108 1.7 6.1 0.00 0.00 0.00 19 999.9